Regional Weather Roundup
Issued by NWS

Home | Current Version | Previous Version | Graphics & Text | Print | Product List | Glossary On
Versions: 1 2 3 4 5 6 7 8 9 10 11 12 13 14 15 16 17 18 19 20 21 22 23 24 25 26 27 28 29 30 31 32 33 34 35 36 37 38 39 40 41 42 43 44 45 46 47 48 49 50
800
ASUS43 KIND 171309
RWRIN

WEATHER ROUNDUP FOR INDIANA
NATIONAL WEATHER SERVICE INDIANAPOLIS IN
800 AM EST TUE JAN 17 2017

NOTE: "FAIR" INDICATES FEW OR NO CLOUDS BELOW 12,000 FEET WITH NO
SIGNIFICANT WEATHER AND/OR OBSTRUCTIONS TO VISIBILITY.

* - STATION DOES NOT REPORT WEATHER SUCH AS PRECIPITATION OR FOG.

+ - STATION NOT QUALITY CONTROLLED BY THE NATIONAL WEATHER SERVICE.
    USE DATA WITH CAUTION...ESPECIALLY DEWPOINT AND RELATIVE
    HUMIDITY OBSERVATIONS.

INZ001>003-010>013-019-020-171400-
NORTHWEST INDIANA

CITY           SKY/WX    TMP DP  RH WIND       PRES   REMARKS
GARY /AIRPORT/ CLOUDY    43  41  93 W17       29.79R
KNOX *+        CLOUDY    41  36  81 W13       29.79R
LA PORTE +     CLOUDY    43  43  99 W10       29.77R FOG
MICHIGAN CITY+ CLOUDY    45  45 100 SW7G18    29.77R
MONTICELLO +   CLOUDY    46  45  95 W12G22    29.82R
RENSSELAER +   CLOUDY    45  45 100 W15       29.83R FOG
VALPARAISO     CLOUDY    43  42  97 W17       29.80R FOG

$$

LMZ046-743>745-171400-
SOUTHERN LAKE MICHIGAN

STATION/POSITION TIME  TEMP    WIND        PRES    WAVE
                       AIR SEA DIR/SP/G            HT
                 (UTC) (F)     (DEG/KT/KT) (MB)    (FT)
BURNS HARBOR     1240   41     250/ 14/ 16 1008.8R

$$

INZ004-005-014>016-021>024-171400-
NORTH CENTRAL INDIANA

CITY           SKY/WX    TMP DP  RH WIND       PRES   REMARKS
ELKHART        CLOUDY    50  48  93 W10       29.74S FOG
GOSHEN         CLOUDY    50  47  89 SW14      29.75R
LOGANSPORT +   CLOUDY    45  45 100 W17G28    29.84R
PERU/GRISSOM   CLOUDY    49  49 100 W14       29.81R
ROCHESTER +    CLOUDY    46  46 100 W16G28    29.81R FOG
SOUTH BEND     FOG       46  46 100 SW15      29.76R VSB 3/4
WARSAW +       CLOUDY    50  46  87 SW12G17   29.77R

$$

INZ006>009-017-018-025>027-171400-
NORTHEAST INDIANA

CITY           SKY/WX    TMP DP  RH WIND       PRES   REMARKS
ANGOLA *+      CLOUDY    43  34  70 CALM      29.74F VSB 1/2
AUBURN +       CLOUDY    52  50  93 SW7       29.77S
FORT WAYNE     CLOUDY    50  49  96 SW9       29.78R
HUNTINGTON +   CLOUDY    52  51  96 SW13G18   29.78R
KENDALLVILLE + FOG       43  43 100 S5        29.76R VSB 1/2

$$

INZ028-029-035-036-043>045-051>053-171400-
WEST CENTRAL INDIANA

CITY           SKY/WX    TMP DP  RH WIND       PRES   REMARKS
CRAWFORDSVL +  CLOUDY    48  48 100 W10       29.87R
GREENCASTLE +  CLOUDY    50  48  93 W6        29.89R
LAFAYETTE      CLOUDY    47  46  97 W14       29.86R
TERRE HAUTE    CLOUDY    50  45  83 W10       29.91R

$$

INZ030>032-037>040-046>048-054>057-064-065-171400-
CENTRAL INDIANA

CITY           SKY/WX    TMP DP  RH WIND       PRES   REMARKS
CP ATTERBURY + DRIZZLE   54  50  87 W8        29.89R
COLUMBUS       RAIN      55  55 100 SW10      29.88R FOG
FISHERS *+     CLOUDY    52  52 100 W13G18    29.87R
FRANKFORT +    CLOUDY    51  49  92 W18G24    29.88R
GREENWOOD *+   CLOUDY    54  52  94 W13       29.88R
INDIANAPOLIS   CLOUDY    52  49  89 W14       29.88R
-EAGLE CREEK   CLOUDY    53  48  83 W15G22    29.87R
KOKOMO +       CLOUDY    50  48  93 W21G26    29.84R
MARION +       CLOUDY    54  52  94 W20       29.83R
MT COMFORT *+  CLOUDY    52  50  93 W14       29.87R
SHELBYVILLE    CLOUDY    55  49  80 W12       29.87R
ZIONSVILLE +   CLOUDY    51  48  90 W12       29.87R

$$

INZ033-034-041-042-049-050-058-059-171400-
EAST CENTRAL INDIANA

CITY           SKY/WX    TMP DP  RH WIND       PRES   REMARKS
MUNCIE         CLOUDY    57  52  83 W10G23    29.83R

$$

INZ060-061-067>069-081>083-085>088-171400-
SOUTHWEST INDIANA

CITY           SKY/WX    TMP DP  RH WIND       PRES   REMARKS
EVANSVILLE     CLOUDY    53  48  83 W9        29.97R
HUNTINGBURG *+ MOCLDY    57  55  94 SW10      29.93R
WASHINGTON +   CLOUDY    51  46  82 W9        29.93R

$$

INZ062-063-066-070>080-084-089>092-171400-
SOUTH CENTRAL AND SOUTHEAST INDIANA

CITY           SKY/WX    TMP DP  RH WIND       PRES   REMARKS
BLOOMINGTON    CLOUDY    52  48  86 W8        29.90R
MADISON *+     CLOUDY    59  54  82 SW9       29.92S
NORTH VERNON + CLOUDY   N/A N/A N/A SW12G18   29.89R
SEYMOUR +      PTCLDY    59  55  88 SW13      29.89R

$$





USA.gov is the U.S. government's official web portal to all federal, state and local government web resources and services.